NATIONAL KEY DEER NWR FL US current weather conditions

sailwx.info

Wind from 031 at 4 knots gusting 8

Air temperature 16.1° C
Dewpoint 13.4° C

Last reported at 2016-Feb-12 10:38 UTC.
Time now 2016-Feb-12 12:03 UTC

Location: N 24°43' W 081°23'.
View on Google Maps.

See reports from other nearby stations

  
Tides and Currents Weather Stations Pressure Air Temp Water Temp Dewpoint Dewpoint Depression Visibility Wind Speed Wind Dir Waves Ship Positions
date/time (UTC)wind fromknots sea level pressurealtimeterstation pressurevisibilityair tempwater tempwave heightnotes
2016-Feb-12 10:38 031 4 gusting 8 16.1
2016-Feb-12 09:38 035 5 gusting 8 16.1
2016-Feb-12 08:38 045 4 gusting 7 16.7
2016-Feb-12 07:38 052 3 gusting 7 16.1
2016-Feb-12 06:38 052 4 gusting 8 16.7
2016-Feb-12 05:38 060 3 gusting 6 16.1
2016-Feb-12 04:38 040 2 gusting 6 15.6
2016-Feb-12 03:38 034 2 gusting 6 15.6
2016-Feb-12 02:38 037 3 gusting 6 16.1
2016-Feb-12 01:38 045 2 gusting 5 13.9
2016-Feb-12 00:38 037 2 gusting 6 15.6
2016-Feb-11 23:38 038 3 gusting 7 16.1
2016-Feb-11 22:38 056 4 gusting 10 16.7
2016-Feb-11 21:38 059 5 gusting 10 17.2
2016-Feb-11 20:38 058 6 gusting 11 18.3
2016-Feb-11 19:38 048 6 gusting 12 18.3
2016-Feb-11 14:38 034 5 gusting 10 16.1
2016-Feb-11 13:38 033 4 gusting 7 13.9
2016-Feb-11 12:38 034 4 gusting 6 12.8
2016-Feb-11 11:38 031 3 gusting 7 12.8
2016-Feb-11 10:38 016 3 gusting 10 13.3
2016-Feb-11 09:38 010 4 gusting 10 13.3
2016-Feb-11 08:38 356 5 gusting 10 13.9
2016-Feb-11 07:38 008 5 gusting 8 13.9
2016-Feb-11 06:38 006 3 gusting 11 13.3
2016-Feb-11 05:38 017 6 gusting 12 14.4
2016-Feb-11 04:38 019 6 gusting 13 15.6
2016-Feb-11 03:38 355 4 gusting 9 15.6
2016-Feb-11 02:38 331 3 gusting 6 15.0
2016-Feb-11 01:38 320 2 gusting 6 15.0
2016-Feb-11 00:38 345 2 gusting 5 13.9
2016-Feb-10 23:38 349 3 gusting 7 15.0
2016-Feb-10 22:38 002 5 gusting 9 17.2
2016-Feb-10 21:38 013 6 gusting 11 18.9
2016-Feb-10 20:38 010 6 gusting 9 19.4
2016-Feb-10 19:38 054 4 gusting 7 20.0
2016-Feb-10 18:38 052 4 gusting 9 20.6
2016-Feb-10 17:38 050 6 gusting 12 20.0
2016-Feb-10 16:38 050 7 gusting 12 18.9
2016-Feb-10 15:38 025 6 gusting 12 19.4
2016-Feb-10 14:38 338 6 gusting 11 20.0
2016-Feb-10 13:38 335 6 gusting 10 18.9
2016-Feb-10 12:38 350 6 gusting 13 17.2